Overview Statistics Trail Chart Weather Telemetry Raw packets
 

This is the latest recevied weather packets stored in our database for station/object EA5FOG-11. If no packets are shown the sender has not sent any weather packets the latest 10 day(s).

<< 5 6 7 8 9 10 11 >>
Time Temp. Humidity Pressure Rain* Wind** Luminosity Snow
1788453753 36.67° C 38% 963.8 hPa - - - -
1788452852 36.67° C 38% 963.6 hPa - - - -
1788451951 37.78° C 37% 963.6 hPa - - - -
1788451050 39.44° C 36% 963.5 hPa - - - -
1788450150 40° C 36% 963.7 hPa - - - -
1788449249 38.89° C 37% 963.6 hPa - - - -
1788448348 38.89° C 37% 963.7 hPa - - - -
1788447447 40° C 36% 963.7 hPa - - - -
1788446546 39.44° C 37% 963.7 hPa - - - -
1788445646 40° C 36% 963.8 hPa - - - -
1788444745 40.56° C 36% 964.1 hPa - - - -
1788443844 39.44° C 37% 964.1 hPa - - - -
1788442943 39.44° C 37% 964 hPa - - - -
1788441162 38.89° C 37% 964.3 hPa - - - -
1788440262 39.44° C 36% 964.2 hPa - - - -
1788439361 40.56° C 36% 964.3 hPa - - - -
1788438460 40° C 36% 964.4 hPa - - - -
1788437559 40° C 37% 964.4 hPa - - - -
1788436659 39.44° C 37% 964.6 hPa - - - -
1788435758 38.89° C 37% 964.7 hPa - - - -
1788434857 38.33° C 38% 964.8 hPa - - - -
1788433956 37.22° C 40% 965 hPa - - - -
1788433055 35.56° C 41% 965 hPa - - - -
1788432154 35° C 42% 965.2 hPa - - - -
1788431254 35° C 43% 965.2 hPa - - - -

* Rain since midnight (hover to see other rain measurements)
** Current wind speed in m/s (hover to see current wind gust speed)